ECMWFNIL_925_rhum_000.txt.gz
RH
71 71 70 68 68 66 64 65 66 65 65 66 65 63 63 65 65 63 62 64 67 68 68 68 67 64 62 62 64 65 64 62 60 62 66 66 64 62 61 61 61 62
72 72 72 68 66 68 67 66 67 65 66 68 67 64 65 65 64 63 64 66 66 67 68 68 67 66 62 60 62 63 64 65 63 63 68 71 69 66 64 63 62 65
74 72 72 68 65 67 66 65 68 68 66 69 71 69 68 65 64 66 66 66 67 67 67 67 66 66 64 61 62 62 61 63 62 61 66 72 71 67 64 63 61 64
78 73 70 68 63 63 64 64 68 70 66 68 74 74 70 67 66 67 68 68 69 68 68 67 65 64 64 63 63 62 59 59 59 58 61 66 69 67 64 62 61 61
80 77 72 69 64 64 67 67 70 70 67 70 78 76 73 72 67 65 68 70 72 70 67 67 66 64 65 65 64 63 61 58 56 57 59 61 61 60 60 60 60 59
82 80 77 74 72 72 71 71 72 70 69 75 79 75 75 77 71 66 70 71 70 69 66 66 67 65 64 65 65 64 63 59 56 57 59 61 60 57 56 57 59 60
82 82 82 79 78 76 74 75 70 65 69 76 76 73 75 78 73 70 75 75 70 68 67 67 68 66 63 63 63 64 64 63 61 61 62 62 61 59 57 57 58 58
83 86 84 81 82 81 80 77 67 63 70 75 75 73 70 69 66 67 75 77 74 74 73 71 71 69 63 60 61 63 65 64 63 63 63 62 60 60 59 58 57 57
84 85 83 82 84 82 79 74 67 67 71 76 84 79 64 57 57 61 69 71 71 73 74 74 73 70 64 60 62 66 66 64 62 63 62 60 59 59 59 57 56 56
83 82 82 82 80 80 79 72 70 74 74 74 77 71 58 54 59 65 68 67 66 67 67 70 73 72 67 63 65 69 68 65 65 66 64 60 59 59 58 56 54 55
82 80 80 78 78 83 79 67 68 77 75 67 61 57 58 59 56 54 53 51 53 57 61 65 67 69 70 69 69 70 69 66 66 66 64 61 61 62 60 58 56 55
79 79 80 80 83 85 71 56 64 73 69 62 54 51 57 56 46 37 35 39 42 45 53 60 63 68 71 72 70 68 69 69 67 65 64 62 62 62 60 59 57 56
79 78 80 78 81 80 61 45 47 50 54 60 54 47 50 49 40 29 27 36 41 41 48 56 63 71 74 75 73 68 68 70 68 66 65 62 62 61 60 57 54 52
81 81 82 79 82 80 60 39 30 28 40 54 52 46 47 47 42 29 24 33 43 49 53 55 63 73 76 76 75 71 71 71 69 68 67 63 61 60 59 57 53 50
84 87 90 87 87 81 56 36 30 30 41 52 50 47 47 48 46 34 25 33 46 58 63 62 67 76 77 73 71 73 74 72 69 68 66 62 57 57 61 61 57 54
87 89 88 84 83 77 60 45 40 41 47 50 48 46 47 49 48 37 29 39 56 68 74 73 74 76 74 69 65 67 72 72 71 68 64 63 59 58 61 61 59 60
85 84 81 80 80 78 72 62 54 47 42 43 44 42 44 50 51 42 43 61 76 80 80 79 75 69 68 66 62 61 64 67 70 68 64 64 62 59 59 60 62 63
80 78 79 82 80 77 75 69 61 49 37 36 38 37 41 49 50 49 60 78 86 80 75 75 72 67 66 64 61 61 63 65 70 74 70 65 63 65 68 71 72 67
82 79 81 83 79 75 73 68 63 55 44 37 37 39 46 54 57 64 76 84 84 77 72 70 71 70 66 61 61 65 67 68 70 73 71 67 68 75 79 81 83 79
87 84 85 84 77 70 69 68 64 56 47 43 47 53 60 65 71 79 83 85 83 77 73 73 76 74 68 65 68 69 69 70 69 65 66 67 70 73 74 76 83 85
88 88 87 85 80 74 71 71 67 59 52 54 60 65 67 70 77 81 81 81 78 72 73 78 77 72 68 68 67 62 60 68 73 70 69 70 71 72 72 74 78 82
88 89 88 84 81 78 75 73 71 67 65 68 70 68 68 70 74 76 77 78 75 72 74 79 76 71 69 68 63 57 59 68 75 74 70 72 78 80 77 78 80 82
87 86 85 82 80 79 77 75 75 74 75 77 74 68 67 69 69 71 74 76 78 78 77 78 77 72 67 65 63 60 63 70 75 77 75 77 82 79 72 71 71 70
84 80 80 81 82 81 78 76 78 78 78 79 75 68 66 67 66 68 73 78 79 78 76 73 72 69 64 61 59 53 54 65 75 78 77 78 82 81 75 72 68 63
82 79 79 82 84 82 79 79 78 77 77 78 76 71 67 66 64 66 73 77 73 71 72 68 64 65 60 51 46 42 45 59 69 70 67 69 77 82 82 83 82 76
82 81 81 81 82 80 79 77 75 73 75 76 74 68 64 61 60 61 68 70 64 62 67 64 58 58 53 44 44 48 51 59 62 60 60 66 75 80 81 84 88 85

ECMWFNIL_925_rhum_003.txt.gz
RH
66 67 67 64 64 65 64 61 62 62 59 59 62 63 62 61 58 55 53 54 56 58 61 64 65 63 61 61 61 61 61 59 55 54 55 57 57 55 54 54 55 56
64 65 66 64 64 66 65 62 61 61 60 60 61 61 61 60 57 56 56 56 57 59 62 65 65 64 62 61 60 60 61 60 57 54 55 60 63 62 59 56 56 58
63 65 66 64 63 64 64 61 61 61 61 60 60 60 61 60 59 58 58 58 59 60 63 63 62 62 62 60 60 60 59 58 57 55 56 61 67 67 63 58 55 55
63 65 64 63 62 61 62 61 60 62 61 58 58 61 63 61 60 62 63 63 63 62 62 61 60 60 61 61 61 61 59 57 57 57 55 57 63 67 66 63 60 57
63 64 62 63 61 59 61 59 58 61 60 56 59 64 66 64 61 63 65 65 65 64 61 59 60 60 61 62 62 62 60 58 57 56 54 54 56 59 59 58 58 59
62 63 63 63 60 59 59 56 58 61 59 58 66 71 70 67 63 62 65 65 64 64 62 59 60 61 62 62 62 62 60 59 57 55 54 54 54 54 52 52 53 56
60 62 64 62 60 60 58 57 60 60 60 66 74 77 72 65 58 57 62 65 64 64 64 63 63 64 63 62 63 64 63 62 60 57 56 56 56 58 58 56 55 56
60 60 64 62 61 61 60 62 63 61 64 70 70 69 66 59 54 54 56 58 61 65 67 66 67 68 66 64 64 65 65 64 63 62 60 60 60 61 61 59 58 57
61 61 63 61 60 62 63 67 71 70 68 64 56 54 57 56 52 52 53 51 54 63 68 68 70 71 69 67 65 64 64 63 63 62 62 63 63 62 60 59 59 60
64 62 62 59 58 62 66 71 77 75 66 56 45 40 46 52 51 50 50 45 48 62 74 74 73 75 74 69 64 62 62 64 64 64 62 62 62 61 59 58 58 58
67 63 62 62 57 57 64 73 78 72 60 52 40 32 41 51 49 49 49 45 49 61 74 77 77 78 77 69 63 62 63 65 66 66 64 63 64 63 60 58 57 57
67 63 64 64 56 54 64 74 76 66 56 50 34 27 43 53 49 48 48 47 49 51 61 76 80 78 74 68 64 63 64 66 66 64 64 64 65 64 62 60 59 58
65 63 65 64 58 60 69 74 71 61 51 44 29 24 39 47 46 49 46 45 47 43 48 64 71 70 69 66 65 66 66 67 66 63 62 63 64 63 62 61 59 58
64 62 63 64 64 68 73 72 67 56 45 36 26 25 33 35 37 43 45 45 47 46 48 54 59 65 66 63 65 68 67 67 67 66 63 63 65 65 63 61 58 56
66 66 69 72 74 74 73 70 63 53 42 31 25 28 32 31 32 39 46 50 53 56 58 59 62 66 65 62 64 67 69 68 67 68 68 67 67 66 65 63 59 58
72 74 77 80 80 76 72 69 61 52 41 28 25 31 35 36 40 46 53 58 62 65 66 65 65 63 61 62 63 67 71 71 70 69 69 68 68 68 66 62 58 60
81 83 84 83 81 75 70 67 62 51 38 29 31 38 42 44 49 54 59 60 63 68 70 68 65 60 61 65 66 68 72 75 74 72 69 69 68 66 65 62 60 62
85 86 87 84 78 73 69 66 61 51 42 44 52 54 52 55 56 57 58 58 60 65 67 66 62 59 63 68 67 67 70 72 74 73 72 72 69 65 65 64 65 67
82 83 84 83 79 74 72 70 63 56 54 61 69 69 66 67 64 61 61 62 64 66 64 61 59 61 67 67 63 64 68 70 73 75 75 74 71 67 65 66 72 76
81 81 81 83 83 79 78 75 68 63 63 67 70 72 74 73 69 69 71 69 69 69 64 59 58 60 66 64 57 58 66 68 72 78 78 77 78 76 72 73 78 81
82 82 82 83 85 83 81 80 75 71 70 68 66 67 72 73 71 71 73 72 71 71 67 62 57 56 62 63 54 54 64 68 73 81 80 76 76 73 73 79 84 85
81 82 83 84 86 85 82 80 80 79 76 72 66 64 66 70 68 66 68 71 72 71 68 65 59 55 60 61 55 58 67 69 73 81 82 77 77 75 77 86 88 84
80 81 83 85 85 84 82 80 81 82 80 76 70 63 60 62 62 62 65 71 73 72 70 66 61 59 61 61 58 62 68 70 74 81 80 78 82 84 81 81 81 73
78 79 81 82 81 81 79 78 77 77 76 74 70 63 58 55 56 59 63 68 69 68 67 65 62 64 66 65 63 63 66 70 75 76 73 75 83 83 74 70 75 74
78 80 81 81 79 79 77 75 73 71 68 68 67 64 60 56 55 57 61 63 63 64 66 66 67 71 73 69 66 64 63 68 73 72 72 77 82 82 76 75 83 86
77 78 81 82 80 79 77 74 71 67 65 66 65 61 60 58 58 61 62 61 61 66 70 70 69 75 76 70 67 66 63 65 72 74 72 71 73 76 79 83 88 90

ECMWFNIL_925_rhum_009.txt.gz
RH
75 75 75 71 67 65 65 65 64 62 64 67 70 73 75 74 74 74 71 68 64 59 56 54 51 50 52 54 54 57 58 52 47 45 51 54 53 56 57 54 54 54
76 75 75 72 68 65 64 63 61 62 64 67 68 71 73 73 72 72 70 67 60 56 55 54 53 53 54 55 56 59 59 55 54 52 53 54 51 52 54 52 53 54
76 76 75 73 70 66 64 62 60 62 65 67 67 69 72 72 71 70 68 66 60 55 55 54 54 56 57 57 56 59 59 56 58 58 54 55 55 54 55 55 56 57
76 76 74 73 71 67 65 64 63 64 66 67 66 66 68 68 69 69 67 64 59 54 54 54 54 54 56 60 58 58 59 57 57 59 56 55 56 56 57 59 60 62
75 75 74 74 72 68 67 66 65 65 66 67 67 65 64 65 66 68 66 62 57 54 54 55 55 54 56 61 61 58 57 59 60 59 58 59 58 57 57 57 58 60
75 75 74 74 72 69 69 68 66 65 66 68 68 67 66 64 64 66 64 60 57 56 56 56 58 58 58 61 62 59 57 58 59 57 57 59 60 60 60 59 57 55
76 75 74 73 72 70 69 69 67 65 65 68 69 69 68 66 63 62 61 59 57 57 57 58 59 60 61 61 62 63 62 60 58 56 57 59 59 61 62 61 59 57
75 74 74 73 72 72 70 68 67 66 66 67 69 68 68 67 64 62 60 58 57 57 57 58 59 61 62 61 60 63 66 65 61 60 61 60 60 60 60 59 60 61
74 74 74 74 73 73 71 69 68 67 67 67 67 67 66 66 64 63 61 59 57 58 58 58 59 61 63 62 60 61 63 64 63 62 62 61 58 56 56 56 57 59
73 73 73 74 74 72 71 70 69 68 68 67 67 66 66 65 64 63 62 60 59 59 59 60 60 61 63 64 62 60 60 61 62 62 62 62 60 59 59 60 60 60
72 72 72 74 74 72 71 71 70 69 69 68 67 67 67 66 65 64 64 62 61 61 60 60 61 61 63 64 64 63 62 62 62 62 62 62 63 63 62 61 60 60
72 72 72 73 73 72 71 70 69 69 69 69 67 67 67 67 67 66 65 64 63 62 61 61 61 63 63 63 64 64 64 64 63 62 62 62 63 61 59 58 58 59
72 71 70 71 72 71 70 69 69 68 68 69 68 67 66 67 68 68 67 66 65 64 63 62 62 65 65 63 64 65 65 66 65 64 64 64 64 63 62 63 63 64
70 70 69 69 70 70 69 68 67 66 67 68 68 67 66 66 68 70 69 68 67 66 65 62 63 67 67 64 64 64 64 65 66 66 67 67 66 65 66 66 66 65
69 69 69 69 69 69 68 67 66 65 65 66 67 66 66 66 68 71 72 71 68 68 67 65 65 67 67 66 65 65 65 66 67 68 68 67 66 66 66 66 65 64
67 68 68 68 69 69 68 67 66 64 63 63 65 65 66 68 71 74 76 74 71 70 70 69 68 68 68 67 66 66 67 67 68 67 66 65 65 66 68 67 66 66
65 66 67 67 68 69 69 68 66 64 62 61 62 64 66 68 73 77 79 77 75 73 71 71 70 70 69 70 69 68 67 68 66 61 59 62 65 67 68 68 67 65
64 65 66 67 68 68 69 69 67 65 63 62 63 65 67 69 72 76 78 78 78 75 73 71 69 67 68 71 73 72 70 68 63 56 56 62 66 68 68 67 66 65
62 65 66 67 67 68 69 69 68 67 64 63 65 68 70 71 72 74 77 78 78 76 74 71 67 66 69 72 75 78 76 70 61 57 60 65 67 69 69 67 66 67
62 64 65 67 67 68 69 69 68 68 66 64 67 72 74 73 72 74 76 78 78 77 75 74 72 72 73 74 78 83 81 72 61 57 62 67 68 69 71 70 69 68
61 63 64 67 68 68 69 69 68 68 68 68 70 74 75 74 72 73 74 76 77 76 75 76 75 75 75 76 79 83 80 71 62 57 61 68 70 71 72 72 72 71
60 63 65 68 70 70 70 70 69 69 70 73 74 75 76 74 71 71 72 73 74 73 72 72 71 71 71 72 75 76 75 70 61 58 65 72 73 73 73 72 72 74
57 63 67 70 71 72 73 72 72 73 75 76 77 77 75 73 73 72 70 69 69 68 65 65 67 67 66 65 65 66 68 65 56 58 70 76 75 75 75 73 74 74
56 62 68 71 73 74 75 75 76 78 78 77 76 76 75 73 73 73 70 68 66 64 63 65 67 66 64 62 61 60 61 59 54 58 69 75 77 78 78 76 75 73
57 63 68 72 75 77 77 79 80 80 79 77 75 74 73 72 72 73 73 71 67 65 65 67 68 65 63 63 62 59 58 56 56 60 67 74 79 81 80 78 75 73
60 67 71 75 78 79 80 81 81 80 79 77 74 72 70 71 73 73 72 71 69 68 67 67 67 64 62 61 60 58 57 56 57 62 69 76 81 81 79 78 76 76

ECMWFNIL_925_rhum_015.txt.gz
RH
76 77 78 79 80 78 77 75 74 74 74 74 72 69 68 69 70 70 71 74 79 81 83 84 76 68 66 67 68 70 66 61 62 64 63 60 57 60 62 61 59 57
77 78 79 80 81 80 78 75 74 75 74 73 69 65 66 69 70 70 73 76 80 82 84 83 76 66 64 66 68 70 65 60 62 64 61 56 55 58 61 61 59 55
78 79 80 81 81 80 79 77 75 74 74 72 68 67 68 69 71 73 75 78 79 83 84 82 75 66 63 66 67 67 64 61 63 63 57 55 56 57 60 60 57 56
79 79 79 80 80 79 79 79 77 75 74 73 70 69 70 70 71 74 77 79 80 82 84 82 76 68 65 67 66 64 63 62 65 61 54 56 58 57 58 58 56 57
79 79 79 80 80 79 80 79 79 76 74 74 71 71 72 71 72 74 76 80 82 83 83 83 78 70 68 70 69 65 61 62 66 59 53 56 59 58 57 57 58 59
78 79 79 80 80 80 80 80 79 77 75 75 74 72 72 72 73 74 76 80 83 83 83 83 79 72 69 71 71 66 61 62 65 59 55 57 56 55 56 58 60 60
77 78 79 80 81 82 81 80 80 78 77 76 76 75 73 73 74 75 76 78 80 83 83 82 80 74 71 72 70 65 61 62 63 59 57 57 52 50 53 56 59 59
77 78 80 81 82 82 82 82 81 80 79 78 78 77 75 74 75 76 78 78 78 80 82 82 80 74 72 73 69 64 61 61 61 59 58 56 52 50 53 54 55 56
77 78 80 82 83 83 82 82 82 81 80 79 79 78 77 76 76 77 78 78 76 79 81 80 79 75 72 72 69 64 61 60 59 58 57 57 53 52 55 55 54 56
78 79 80 82 83 83 82 83 82 82 81 80 79 80 79 79 78 78 78 77 77 78 79 78 77 75 73 72 70 66 61 58 57 57 57 58 55 53 55 56 56 57
78 79 80 82 83 82 82 83 83 83 82 80 80 80 81 80 80 80 79 78 77 76 77 77 76 74 73 72 70 66 61 57 56 57 57 58 58 56 56 57 58 58
78 79 80 81 82 82 82 83 83 83 83 81 81 81 81 81 81 81 80 78 76 74 74 74 74 74 73 70 69 66 62 58 57 58 58 59 60 59 58 58 57 59
77 79 80 80 82 82 82 83 83 83 83 82 82 81 81 82 81 80 79 77 76 75 75 74 74 74 73 71 69 65 62 60 61 60 59 60 61 60 60 59 58 58
76 78 79 80 81 82 82 83 83 83 83 82 82 82 81 81 80 80 79 78 77 76 76 76 75 74 73 71 68 65 63 63 63 62 61 61 61 60 60 61 60 59
76 78 79 80 81 82 83 83 83 84 83 83 83 82 81 80 79 79 80 80 79 79 79 79 78 76 74 72 69 67 66 64 65 63 61 61 63 63 64 62 60 59
76 78 79 81 81 82 83 84 84 84 84 83 83 82 81 80 80 81 81 81 80 80 81 81 79 77 75 74 72 69 67 66 66 63 62 65 67 64 62 59 58 61
77 78 79 80 81 82 83 84 85 84 84 83 83 82 81 81 81 81 81 81 80 80 81 81 80 78 76 75 73 70 68 67 65 63 65 69 65 56 50 49 51 61
77 78 79 80 81 82 83 84 85 84 84 84 83 83 82 82 81 81 81 81 81 81 81 79 78 77 76 75 74 71 69 67 66 66 65 66 65 59 54 48 48 59
77 78 79 80 81 82 83 84 85 85 84 84 83 83 82 82 82 81 81 81 82 82 81 79 77 76 75 75 74 72 71 72 70 66 63 66 68 65 62 58 56 64
77 78 79 80 81 82 83 84 84 84 84 83 84 84 83 83 82 81 81 81 81 81 81 80 78 77 75 74 73 72 74 78 77 68 67 74 72 65 64 65 69 74
76 78 78 80 81 81 83 83 83 84 84 84 84 84 83 83 82 82 81 81 81 80 80 81 79 77 77 75 74 75 75 81 87 78 72 79 78 70 69 69 72 77
75 77 78 79 81 81 82 83 83 84 83 83 84 83 83 83 82 83 82 81 81 80 80 81 78 77 79 76 76 79 77 83 92 84 75 80 80 71 69 69 73 79
73 75 77 79 80 81 82 82 82 83 83 83 84 84 83 83 83 83 82 81 81 81 80 81 79 78 79 77 78 81 81 84 89 85 84 88 82 72 72 74 77 80
71 73 75 77 79 80 81 82 81 82 82 83 83 83 82 83 83 83 83 81 81 81 80 80 80 79 79 78 80 83 84 85 84 85 92 93 82 79 85 86 81 75
69 71 73 75 77 79 80 80 80 81 82 82 82 82 81 82 83 82 83 82 81 81 80 79 80 80 79 80 82 84 86 86 83 87 95 92 84 85 90 86 78 70
67 70 71 72 75 76 77 79 79 80 81 82 81 81 80 82 82 81 82 83 83 82 82 81 82 81 80 81 82 84 88 88 86 89 95 93 89 89 86 80 76 72

ECMWFNIL_925_rhum_021.txt.gz
RH
87 85 83 83 83 81 80 78 76 77 76 75 76 72 67 65 66 67 68 69 70 69 69 70 71 71 74 76 76 77 79 84 88 87 83 78 69 64 66 65 65 67
86 85 83 83 83 80 77 76 75 74 72 70 71 70 68 67 67 67 68 70 70 70 70 70 70 71 74 76 76 77 80 83 87 85 78 73 67 65 65 63 62 65
85 86 84 83 82 79 79 80 77 73 71 70 69 69 70 70 69 69 69 70 71 71 70 69 70 71 73 77 77 76 79 81 84 82 73 68 66 64 64 62 63 65
85 86 84 83 82 81 82 83 80 76 75 75 71 69 71 71 71 72 71 71 72 72 71 68 69 71 73 77 78 78 79 80 83 80 71 65 64 64 62 61 64 66
83 83 84 83 84 84 83 81 79 77 78 78 74 70 70 70 72 73 73 73 73 73 72 70 70 70 71 75 78 79 80 82 84 80 73 67 64 64 64 60 62 66
82 82 82 83 84 84 82 79 78 78 77 78 75 72 71 70 71 73 74 74 75 76 75 73 71 69 69 74 78 79 79 82 84 80 73 68 64 64 64 61 61 65
82 82 81 82 82 82 81 79 79 77 76 76 75 72 71 71 71 71 72 74 76 78 77 74 71 68 67 71 76 78 79 82 84 81 75 68 64 64 63 61 62 64
79 81 81 82 82 83 82 81 81 79 76 76 77 74 72 71 71 70 71 74 77 78 77 74 70 67 66 68 72 76 79 83 85 84 79 69 64 64 62 60 62 65
78 80 82 82 82 82 81 81 81 81 78 76 78 78 76 72 71 70 71 74 78 79 77 75 72 69 68 68 69 73 78 82 85 85 81 73 65 62 62 60 61 65
79 80 80 80 80 79 79 78 79 81 81 78 79 81 80 75 72 72 73 74 78 80 79 78 74 72 71 69 68 71 76 79 82 85 83 75 66 62 62 60 60 64
79 79 78 78 77 76 77 77 76 79 82 82 82 83 83 79 76 76 77 77 79 81 81 79 76 73 73 71 69 70 73 76 79 82 83 79 71 65 62 60 59 62
77 76 76 76 77 76 76 76 76 76 80 82 82 83 84 83 79 79 79 79 80 81 82 80 77 75 73 72 71 71 72 77 79 81 82 80 76 70 65 61 60 62
74 75 76 76 77 78 77 77 77 76 77 81 82 82 84 84 83 82 81 80 80 82 83 82 79 76 74 74 74 73 72 76 81 82 82 81 79 74 69 64 62 62
72 74 77 78 79 81 81 79 79 78 78 81 83 83 84 83 83 83 83 83 83 83 84 84 81 79 77 77 77 75 73 76 80 81 82 83 81 77 73 69 66 65
73 75 79 80 81 83 84 82 82 82 82 83 84 84 84 83 83 84 85 87 87 87 87 88 87 82 78 78 78 77 75 77 79 80 82 84 82 79 77 73 70 69
73 76 80 80 80 82 84 83 84 86 86 85 85 85 85 84 84 85 86 88 90 90 90 91 91 86 80 78 77 74 72 76 80 80 82 83 82 81 79 76 73 71
70 74 78 78 79 82 83 83 85 87 87 87 86 87 88 86 85 86 87 87 89 90 90 91 90 88 83 81 78 74 71 74 76 78 81 81 81 80 78 76 74 72
70 74 77 79 81 83 83 84 86 87 88 88 88 89 90 89 88 89 89 88 87 88 88 88 89 89 85 83 81 77 74 75 74 75 79 80 80 79 77 75 74 72
71 75 77 80 82 83 84 85 86 88 88 88 89 89 90 90 90 90 90 89 88 86 85 86 87 87 85 84 84 79 77 80 79 76 76 77 77 77 76 75 74 72
71 74 77 80 82 84 86 86 87 87 87 87 88 89 90 89 89 90 89 89 88 87 86 86 87 87 85 84 84 81 80 83 83 79 75 74 74 73 73 74 72 70
71 75 78 80 82 84 86 86 86 87 87 88 86 86 87 87 87 88 88 88 87 87 88 86 85 87 87 84 83 83 83 85 85 83 78 75 75 73 71 72 70 68
72 76 78 80 82 84 85 85 86 88 89 89 86 85 85 85 84 85 86 88 87 87 88 84 82 86 88 86 84 85 86 86 87 86 82 78 77 75 73 72 69 68
72 75 78 79 80 83 84 84 86 88 89 88 87 86 83 81 81 81 83 85 85 86 87 83 80 85 88 87 86 87 88 88 89 89 85 81 80 77 75 73 70 70
73 75 78 79 80 82 82 83 84 85 87 88 86 84 82 79 79 80 80 81 82 83 84 83 80 83 88 88 87 88 89 88 88 90 88 84 82 81 77 74 72 73
71 73 76 78 79 80 80 81 83 83 84 86 85 83 81 79 77 77 78 79 80 81 83 85 82 82 87 90 87 87 89 89 88 90 90 88 87 85 82 79 77 78
70 73 76 77 78 79 79 80 82 82 83 84 83 81 80 77 76 76 76 78 79 79 82 85 83 81 85 90 89 87 88 89 88 89 91 91 90 89 88 85 84 85

ECMWFNIL_925_rhum_024.txt.gz
RH
83 83 83 82 82 78 75 76 75 75 73 70 69 69 70 71 72 73 74 81 86 83 81 81 81 82 81 80 80 79 79 81 80 77 77 77 76 73 68 64 62 60
81 81 80 80 82 81 78 77 76 76 75 72 68 67 70 73 75 76 76 80 83 82 81 81 80 82 81 79 81 81 81 83 81 76 75 76 77 75 69 65 65 65
81 80 79 80 81 80 78 78 78 78 75 74 72 70 70 72 76 78 79 79 79 78 79 80 80 82 81 80 82 82 80 83 82 76 75 78 78 75 68 64 64 65
81 79 79 81 79 78 79 77 78 79 76 74 74 73 71 72 76 79 81 81 79 77 79 80 80 80 81 83 84 82 79 83 82 78 77 79 79 77 70 65 62 61
81 79 81 82 78 76 78 77 76 77 75 73 73 75 75 75 76 77 79 82 81 78 78 80 81 80 81 85 86 83 79 79 82 82 81 79 79 78 72 67 64 62
81 81 82 83 80 77 78 77 76 75 74 72 73 75 76 78 78 75 76 80 80 77 75 77 81 80 79 84 86 83 79 77 78 81 82 79 78 77 72 69 69 66
79 81 82 81 79 78 78 77 76 75 74 72 73 75 75 77 79 77 76 78 78 77 75 75 80 81 79 82 85 85 84 81 77 77 81 80 78 77 73 70 72 70
76 77 80 80 78 78 77 76 76 76 75 73 72 74 75 75 78 79 78 78 78 78 78 77 81 84 82 81 84 86 86 84 79 77 81 80 77 78 77 73 74 73
73 73 75 76 75 75 73 72 73 75 76 75 71 71 74 75 75 77 79 81 80 80 81 80 82 86 84 81 84 87 86 82 79 79 83 82 77 79 80 76 74 74
72 71 71 72 71 70 69 67 68 71 74 75 72 69 71 75 76 76 79 83 82 81 83 83 83 87 86 83 84 87 85 81 79 81 84 84 81 79 80 77 75 74
69 68 67 68 67 65 64 64 63 65 68 72 72 69 68 72 77 78 79 83 84 82 84 84 85 87 87 84 83 85 84 80 79 82 84 84 83 80 78 78 75 73
66 65 63 64 65 62 61 60 60 60 63 67 70 69 68 70 75 79 80 82 85 84 84 85 85 86 88 85 80 80 82 80 78 82 83 83 83 81 78 78 76 73
62 64 63 61 62 62 60 59 58 58 58 62 66 68 68 67 71 78 80 81 84 85 84 85 85 85 87 87 82 79 81 81 78 79 82 83 82 80 77 76 76 74
59 63 64 63 62 64 63 61 60 59 58 59 63 66 67 66 68 75 80 80 83 85 84 84 85 85 86 89 87 81 80 81 80 79 80 82 82 79 75 73 74 73
60 62 66 66 65 65 67 65 63 63 62 61 63 67 68 67 66 71 78 80 81 83 84 83 83 84 84 85 87 84 81 80 81 80 79 80 81 80 76 74 73 72
62 64 66 69 69 68 70 70 67 66 66 65 66 69 71 70 69 70 74 77 79 81 83 82 81 82 81 80 82 83 82 81 81 81 80 79 80 80 78 75 73 71
65 67 68 72 73 72 73 74 72 70 70 70 70 71 74 74 72 72 71 73 76 79 80 80 79 78 78 79 79 79 80 82 82 82 82 81 80 81 79 76 74 73
67 70 71 73 75 75 75 76 76 74 74 75 74 74 76 77 76 75 74 72 73 75 76 77 76 74 74 78 80 79 79 80 81 81 82 81 80 82 81 76 75 75
70 71 72 74 76 77 77 79 79 77 76 77 76 76 78 78 77 77 76 74 73 73 74 75 74 73 73 75 79 81 81 80 80 80 81 81 80 81 82 78 76 76
72 72 73 75 77 78 79 80 80 79 78 77 76 77 78 77 76 76 75 74 73 72 72 73 73 73 74 74 76 81 83 81 81 82 82 81 80 81 81 80 78 78
72 72 73 74 77 78 79 80 79 79 79 77 74 75 75 73 73 73 72 73 72 71 70 70 71 73 74 75 76 78 81 84 84 84 84 82 81 82 81 80 80 79
70 71 72 72 74 77 78 78 78 78 79 77 74 73 72 71 70 69 69 71 71 70 71 69 68 70 73 75 76 77 80 85 86 86 85 84 82 83 83 82 80 81
68 69 70 70 72 75 77 76 77 78 79 79 76 73 70 69 68 67 66 67 68 70 73 70 66 68 70 71 72 75 79 85 88 87 85 84 83 81 81 80 80 82
65 66 68 70 71 74 75 75 76 76 77 78 77 73 70 67 67 67 66 65 65 67 70 70 66 67 69 70 71 74 77 84 89 87 84 84 84 80 77 78 78 81
63 65 67 69 71 72 73 73 74 73 74 76 75 72 70 67 65 65 65 64 63 63 66 68 66 65 67 70 72 74 78 85 89 86 82 83 83 80 77 77 78 80
62 64 67 68 70 71 71 71 71 70 70 72 72 69 69 67 64 63 63 62 61 62 63 65 66 65 65 67 70 73 78 85 88 84 81 82 82 77 74 77 78 78

ECMWFNIL_925_rhum_030.txt.gz
RH
73 72 71 70 67 62 59 60 64 68 68 66 67 68 66 66 66 65 64 65 67 71 72 70 70 73 75 75 74 73 71 71 73 76 76 77 75 70 64 59 57 54
72 71 70 70 69 65 60 59 61 66 69 68 66 67 68 66 65 63 62 63 66 69 72 71 69 70 73 76 76 75 73 72 72 74 76 77 77 73 65 60 60 58
71 71 71 71 70 67 63 60 60 63 68 70 66 65 66 66 64 62 61 62 65 69 72 72 71 71 73 76 78 77 76 75 73 74 75 77 77 73 64 59 61 61
71 71 71 70 68 66 63 61 60 62 65 68 68 65 63 63 64 63 61 61 63 67 71 73 73 73 74 75 77 78 79 78 76 75 74 75 76 73 65 60 60 62
71 70 69 68 66 64 63 61 61 62 63 65 68 67 61 58 61 64 63 61 61 65 70 74 75 74 76 77 76 76 78 79 78 76 74 74 75 72 66 63 61 61
71 69 67 67 65 64 63 61 61 61 62 63 66 68 65 58 58 62 65 63 62 65 69 74 76 74 75 77 77 75 75 77 78 78 76 75 74 72 68 65 63 62
72 70 67 67 66 64 64 63 62 61 61 63 63 64 66 62 57 58 63 66 65 65 68 72 75 74 73 76 77 76 75 75 76 77 78 77 74 74 71 67 64 63
71 70 67 65 65 64 63 63 64 62 61 62 63 62 64 64 60 57 60 67 68 67 67 69 72 72 71 73 76 77 76 75 75 75 77 78 76 75 72 68 65 65
69 69 67 66 65 66 64 62 64 64 61 62 63 63 64 64 63 59 58 63 68 69 68 67 68 69 69 70 74 77 76 75 75 74 75 78 78 77 74 69 66 66
66 68 69 68 67 67 65 62 62 63 62 62 62 64 65 63 62 63 60 61 64 68 70 68 66 67 68 69 71 75 76 75 74 73 73 75 77 78 76 71 67 67
65 66 68 69 66 63 63 61 60 61 62 64 63 63 64 63 62 63 63 62 63 66 69 69 67 67 67 68 70 73 75 75 74 72 72 73 75 78 78 73 69 67
64 62 62 65 63 59 59 59 57 58 61 65 65 62 61 61 61 62 64 65 64 64 67 69 68 67 67 68 69 71 73 74 75 72 71 72 73 77 78 75 71 68
61 59 57 59 60 57 55 55 55 56 57 61 64 64 60 59 60 61 63 65 66 64 65 68 68 67 67 68 69 70 72 73 75 74 72 71 72 75 76 75 72 70
58 58 55 55 56 55 53 52 53 53 53 55 61 64 61 58 59 62 62 63 66 67 66 66 68 68 68 68 69 70 70 72 74 74 73 72 73 73 73 73 72 70
56 57 55 53 53 54 53 51 51 51 51 52 56 60 61 57 56 60 63 64 65 68 69 68 68 69 69 69 70 70 70 71 72 73 73 74 73 72 71 72 71 70
55 56 55 54 52 53 53 51 50 51 51 50 52 55 58 58 55 56 61 65 65 67 71 72 69 69 69 68 68 68 68 68 69 70 72 73 73 72 72 72 72 70
55 55 56 55 53 53 54 53 51 51 52 51 50 51 54 57 56 54 55 61 66 68 72 73 71 69 69 69 68 66 65 65 65 68 72 72 71 71 71 72 72 70
55 57 57 57 56 55 55 55 54 53 53 52 51 50 52 55 57 57 54 56 63 69 72 73 73 71 69 71 71 68 66 64 63 65 70 72 71 70 70 71 71 70
56 58 58 59 59 57 56 57 57 55 54 54 53 51 51 54 57 58 56 55 58 64 69 71 73 73 72 72 73 71 69 67 64 64 66 69 70 70 69 69 69 70
56 58 60 60 61 60 59 58 59 58 56 55 54 53 52 54 57 58 59 57 56 59 65 68 69 71 72 73 72 72 72 69 66 65 64 65 68 69 69 68 67 68
58 59 61 61 62 64 63 61 61 61 60 58 56 55 54 55 57 59 60 60 58 58 61 65 66 67 70 72 73 73 73 71 68 67 66 66 66 68 69 68 67 67
58 60 62 62 63 66 66 65 64 64 64 62 58 56 56 56 57 59 60 61 62 61 60 61 63 64 66 69 71 73 74 73 72 70 69 68 67 67 68 69 68 67
58 60 63 64 65 68 70 68 66 67 67 66 62 59 58 59 59 58 59 61 63 63 63 61 61 61 62 65 67 71 73 74 74 74 72 70 68 67 68 69 70 68
56 60 64 67 68 71 74 71 69 69 69 68 66 62 59 59 60 59 59 60 62 64 66 65 62 61 61 62 64 68 72 74 75 76 76 74 72 70 69 69 70 69
55 60 64 68 70 73 75 74 71 70 71 71 69 65 60 58 59 60 61 61 62 64 66 67 66 64 62 63 64 66 70 73 76 78 79 78 76 74 72 71 71 70
54 59 65 69 71 73 74 73 71 70 71 72 70 67 63 60 58 59 62 63 63 64 64 66 67 67 65 65 65 65 66 70 76 80 81 80 79 77 76 75 74 72

ECMWFNIL_925_rhum_033.txt.gz
RH
73 73 72 69 65 63 63 63 62 61 63 64 64 64 65 65 66 66 68 70 70 73 76 77 79 80 77 76 76 74 73 74 75 75 73 74 76 70 65 62 56 55
74 74 74 71 68 67 66 66 64 62 62 63 63 63 65 66 67 67 68 70 71 72 75 77 77 78 77 76 76 75 74 73 74 75 74 74 77 74 68 66 60 54
76 75 75 74 70 68 68 68 67 64 62 62 62 63 64 66 70 70 68 69 70 72 74 76 76 76 75 75 76 76 75 73 73 73 74 74 77 77 70 67 64 56
77 77 75 75 72 68 67 67 68 67 64 63 62 64 64 65 68 70 70 68 68 70 72 74 74 74 74 72 73 77 77 74 73 72 75 75 75 77 73 68 68 63
76 77 76 75 73 71 68 66 66 67 68 67 65 65 67 67 67 68 69 68 67 68 70 71 71 73 73 71 71 75 77 77 75 73 75 76 75 77 75 69 69 68
77 76 75 75 73 72 71 67 64 63 65 68 68 68 68 69 69 68 68 68 66 67 68 69 70 71 73 73 71 73 76 78 77 75 75 76 75 77 76 72 69 67
77 76 75 74 73 72 71 69 65 62 61 63 67 69 69 69 70 69 68 67 66 67 68 69 70 71 73 75 74 75 77 79 79 77 76 76 76 77 76 74 71 68
76 76 75 74 73 72 71 68 67 64 62 62 64 68 69 68 68 69 69 67 66 67 68 69 70 71 73 75 76 77 78 80 81 79 78 77 78 78 76 75 75 71
75 75 75 75 74 73 71 69 67 65 63 63 62 64 68 69 67 66 67 67 66 66 67 69 71 71 73 75 77 78 79 80 80 80 78 77 78 79 77 76 76 73
74 75 75 74 73 72 70 69 67 65 64 63 62 62 65 69 68 65 64 67 68 66 66 67 69 71 73 75 77 78 79 79 79 79 78 76 76 77 78 77 76 73
74 75 74 74 73 71 70 68 67 66 64 63 62 62 63 66 69 68 64 65 67 68 67 65 67 70 73 75 76 77 78 78 78 78 78 77 76 75 76 77 76 75
74 74 73 73 72 69 68 67 65 65 65 63 62 62 63 64 67 69 66 63 64 66 68 67 66 68 71 74 75 76 78 78 78 77 76 77 77 76 76 76 75 75
73 73 71 71 70 68 66 64 63 63 62 64 63 62 63 64 65 67 67 64 62 63 66 68 68 68 70 73 75 75 77 78 78 77 76 76 77 77 77 76 75 75
70 70 69 69 68 66 64 62 61 60 59 61 63 62 62 63 64 66 67 66 65 62 64 67 70 70 70 72 74 74 75 76 77 77 77 77 77 77 77 77 76 76
68 68 67 67 66 65 64 61 60 59 58 58 60 62 62 61 62 64 66 68 67 65 64 66 69 72 71 71 72 73 73 74 75 76 77 77 78 77 77 76 76 76
66 66 65 65 66 65 64 62 60 60 59 58 58 60 61 60 60 62 65 67 68 68 67 66 68 70 71 71 70 70 71 72 74 75 76 76 77 78 78 77 77 77
64 64 64 64 65 65 65 63 61 60 59 58 58 59 61 61 61 61 63 65 66 68 69 69 69 68 69 71 70 69 69 70 72 75 75 76 77 77 77 77 77 77
64 63 63 64 63 64 65 64 62 60 59 58 58 59 61 63 62 62 62 63 64 65 67 69 69 68 68 69 70 70 70 69 71 73 75 77 77 77 77 76 76 77
64 64 63 64 63 62 62 63 62 60 59 58 58 59 61 63 63 63 62 62 63 64 65 66 67 68 68 68 68 69 70 70 70 71 73 75 76 77 77 76 76 76
63 64 63 64 64 62 62 62 63 61 59 58 58 58 60 63 64 64 63 62 62 63 64 65 65 66 67 68 68 68 69 70 70 70 71 72 74 75 76 76 76 75
63 63 63 63 63 63 63 62 63 63 60 59 58 58 59 60 62 63 63 62 61 61 63 64 64 65 66 67 68 68 69 70 70 71 71 71 71 72 74 75 75 74
62 63 63 63 63 64 64 63 63 63 62 60 59 58 58 58 59 61 62 62 62 61 61 62 63 65 66 67 69 69 70 71 71 72 72 72 71 70 70 72 73 73
60 62 62 63 64 65 65 64 63 62 62 62 61 59 59 59 58 59 60 61 62 62 61 61 61 64 66 68 70 71 72 73 73 74 74 74 72 71 70 70 71 72
58 61 62 63 64 65 66 65 64 64 63 63 63 61 59 58 58 58 58 59 60 62 62 62 61 61 63 66 69 71 73 74 75 76 77 77 76 75 73 72 71 72
57 60 61 63 64 65 65 66 66 65 64 64 64 63 61 59 58 58 58 58 59 60 61 62 63 62 61 63 65 68 72 74 76 79 81 81 80 79 77 75 74 73
55 59 62 63 64 65 65 66 67 67 67 66 66 66 64 62 59 58 59 58 58 59 59 61 62 63 63 63 63 65 67 70 75 80 83 83 82 81 80 79 77 76

ECMWFNIL_925_rhum_036.txt.gz
RH
72 73 73 72 71 71 69 67 66 64 62 61 60 59 62 64 65 65 67 70 73 74 73 72 72 73 75 79 81 79 79 81 81 79 75 72 71 69 68 64 63 61
72 71 72 73 72 71 69 67 65 65 62 60 60 58 58 62 64 64 65 67 70 72 72 72 71 72 75 81 84 81 79 81 80 79 77 75 73 72 70 67 65 62
72 71 72 72 73 72 69 67 65 64 63 61 61 60 59 60 61 62 63 64 67 70 71 72 71 70 73 80 85 83 79 80 79 77 77 77 75 74 71 69 67 63
73 72 72 71 72 72 70 68 66 64 63 62 61 61 60 60 60 61 63 64 65 67 70 71 71 70 71 76 82 84 80 79 79 77 77 77 76 75 73 72 69 64
73 73 73 72 72 72 71 70 68 65 63 62 61 62 63 63 63 63 64 65 64 66 68 70 72 72 72 74 79 83 82 80 81 79 77 76 75 76 74 74 73 68
74 74 74 75 74 73 74 71 69 67 65 63 62 63 65 66 66 65 64 65 65 67 69 70 72 73 73 75 78 81 81 80 81 81 79 76 75 76 75 75 76 71
75 76 75 77 76 76 76 73 71 70 67 66 64 63 66 68 68 67 65 66 66 68 70 71 71 72 74 76 78 79 79 79 80 81 81 78 76 76 75 75 76 74
75 76 76 77 78 79 78 76 75 73 71 71 69 66 65 66 67 67 67 68 68 70 71 71 71 71 72 76 78 79 79 79 79 81 82 81 78 77 76 76 77 76
76 77 78 79 80 80 79 78 76 74 74 75 73 70 67 65 64 65 66 68 70 71 71 71 71 70 71 74 76 77 77 78 78 80 81 82 82 80 78 78 78 78
77 78 78 79 81 81 80 79 78 76 74 74 74 74 72 68 65 65 66 68 70 71 71 71 71 71 71 73 74 74 74 74 75 78 80 82 82 82 81 80 80 79
77 78 79 79 80 80 80 79 78 77 75 73 72 73 73 73 71 70 70 70 70 70 70 71 71 72 72 73 74 74 74 72 72 75 78 80 81 82 82 81 80 79
76 77 78 79 80 79 79 79 77 77 75 73 71 70 70 72 73 74 73 72 71 70 71 71 71 72 72 72 73 75 76 76 75 74 76 78 80 81 82 82 81 79
76 77 77 77 78 78 78 78 77 76 75 73 72 70 69 68 70 72 72 71 71 70 71 72 72 73 73 72 73 75 77 79 79 78 77 78 79 79 81 82 81 80
75 76 76 76 77 77 77 76 76 75 74 72 72 70 69 68 66 68 70 71 70 69 69 71 73 74 74 74 75 75 77 78 80 81 81 80 80 80 80 82 81 81
74 75 75 75 76 76 77 76 75 74 73 72 71 70 69 68 66 66 68 70 71 70 69 70 73 74 73 74 75 75 77 78 79 81 83 83 83 82 82 82 81 81
73 74 75 75 76 76 76 76 75 74 73 72 71 70 69 68 67 66 67 68 70 71 72 71 72 72 72 72 72 74 75 77 79 81 82 84 85 85 85 83 82 82
72 73 74 75 76 76 76 76 76 75 73 72 71 70 69 69 67 67 67 67 68 70 72 72 72 71 70 70 71 71 73 75 78 80 81 84 85 86 86 84 83 83
71 72 73 74 75 76 76 76 76 75 73 72 70 69 69 69 68 67 66 66 68 69 71 72 71 70 69 69 69 70 71 73 75 78 80 82 84 85 85 84 84 83
71 72 73 74 74 74 75 75 75 75 73 71 69 68 68 68 68 68 67 66 67 68 70 70 70 69 68 68 68 68 70 72 74 76 78 79 81 82 83 83 83 83
71 72 72 73 73 73 74 75 75 74 73 71 69 68 67 67 67 68 67 67 66 66 68 69 69 69 68 68 69 68 69 72 74 75 76 76 78 79 80 81 81 82
72 72 72 73 72 72 73 73 74 73 72 71 69 68 67 66 66 67 67 67 67 66 67 67 67 68 68 69 70 69 69 71 73 75 77 76 76 76 77 78 79 80
70 72 72 72 72 72 73 72 73 73 72 71 70 68 67 66 66 67 67 67 68 67 67 67 66 66 68 69 70 70 71 72 73 75 77 77 77 77 76 76 77 78
68 70 71 71 71 71 72 72 71 71 71 70 70 68 67 66 66 66 67 67 68 69 68 68 67 66 67 68 68 70 71 73 74 76 77 79 78 77 77 76 76 76
65 67 69 70 71 71 71 70 70 70 70 69 69 68 66 65 64 64 65 65 67 68 69 69 68 67 67 68 68 69 69 71 73 75 78 79 79 78 78 77 76 76
62 65 66 68 70 70 70 70 69 68 68 68 68 68 66 65 64 63 63 64 64 65 66 68 69 68 68 67 67 68 68 69 72 75 78 79 79 79 78 77 77 77
58 63 64 65 68 68 68 69 68 68 68 68 68 68 66 65 63 63 63 62 62 63 64 65 67 68 68 68 66 66 66 67 70 75 78 79 79 79 79 79 79 78

ECMWFNIL_925_rhum_042.txt.gz
RH
79 79 79 78 78 77 75 75 74 72 71 71 70 68 67 67 66 63 62 62 61 61 61 61 62 64 66 68 70 67 65 68 74 76 78 80 81 81 82 81 79 77
80 79 79 79 78 78 76 75 74 72 72 71 69 68 68 67 67 64 62 62 62 61 61 61 61 62 64 67 69 70 68 68 71 75 78 80 81 82 83 83 84 83
80 80 79 79 78 77 76 75 74 73 72 71 70 69 68 67 66 65 64 63 62 62 60 60 60 60 63 66 69 71 70 69 70 73 76 78 81 83 82 83 84 85
81 80 79 78 77 77 77 77 76 75 74 72 70 69 68 67 66 65 65 65 63 62 61 60 60 60 61 63 68 71 71 70 70 72 75 77 79 82 82 82 84 85
80 80 79 78 78 78 79 79 78 76 75 73 71 71 69 67 66 65 65 65 65 64 62 61 61 60 61 62 66 70 72 72 72 73 75 75 75 78 80 82 83 84
81 80 79 79 79 79 80 78 78 77 76 74 73 72 71 69 67 65 63 63 64 64 64 62 62 62 62 63 66 69 71 72 73 74 75 73 72 72 75 79 82 83
81 80 79 79 79 80 79 78 78 77 76 76 75 74 72 71 69 66 63 61 62 64 64 62 62 62 63 64 67 69 70 71 73 76 76 75 74 73 73 75 79 81
80 80 80 80 80 80 79 79 78 78 77 77 77 75 73 72 70 67 65 63 62 63 63 62 61 61 63 65 67 68 69 70 72 75 76 77 78 77 75 76 78 79
79 80 80 80 80 80 79 79 78 78 78 78 77 76 74 73 71 69 68 67 65 64 62 62 61 61 63 64 65 67 68 68 69 71 74 76 76 76 77 79 81 79
80 80 81 80 81 80 79 79 78 79 79 78 77 77 75 73 72 71 71 70 69 67 65 62 62 62 63 64 64 65 67 67 68 70 70 71 72 73 76 80 82 81
80 81 81 81 81 80 79 78 78 79 80 79 79 78 77 75 74 74 74 73 71 69 67 64 63 64 65 65 66 66 67 68 69 70 70 71 71 72 75 79 81 81
80 80 80 80 80 80 79 79 78 79 79 80 79 79 78 78 77 76 75 74 72 70 69 67 65 66 66 67 68 69 70 70 71 72 72 72 73 74 75 78 80 80
78 79 79 79 79 79 78 78 78 78 78 78 79 79 80 79 79 79 77 75 74 72 71 70 69 70 69 69 70 71 72 72 73 73 74 74 75 75 76 78 79 80
75 77 77 77 78 78 77 77 78 78 77 77 78 79 79 78 79 79 79 78 77 75 74 73 74 74 73 72 72 73 74 74 74 75 75 76 76 76 76 77 79 80
74 75 76 76 77 77 77 77 77 77 77 77 78 78 78 78 78 78 79 80 80 79 78 77 78 77 75 74 74 74 74 75 76 77 77 77 78 78 77 78 80 81
73 75 75 76 76 76 77 77 77 78 78 78 79 79 78 79 79 79 80 81 81 82 81 81 81 78 75 74 74 74 75 76 77 77 77 78 79 79 79 79 80 81
72 74 76 76 77 77 77 77 78 78 79 79 79 79 79 80 80 80 80 80 81 82 83 84 83 80 78 77 76 76 77 78 78 77 77 78 79 79 79 79 80 80
72 74 76 77 77 78 77 78 79 79 80 80 80 80 80 81 81 81 81 81 81 82 82 83 83 81 80 80 80 79 79 79 79 79 80 80 80 80 80 80 81 81
72 74 75 77 77 78 78 79 80 80 81 81 81 81 81 82 82 81 81 81 82 82 81 81 80 80 79 80 80 79 79 80 81 81 82 82 82 82 81 81 82 82
73 74 75 76 77 77 79 80 81 81 81 81 82 82 83 83 83 82 82 82 82 82 81 80 79 78 77 77 77 77 77 79 80 81 82 82 82 82 82 82 82 83
73 75 75 76 77 78 79 81 81 82 82 82 83 83 84 83 83 83 83 82 82 82 82 81 79 78 77 75 74 74 75 77 78 79 80 80 80 80 80 80 81 82
73 75 76 77 78 79 81 82 82 83 82 83 83 84 83 83 83 84 83 82 82 82 82 81 79 77 77 76 75 74 75 75 77 77 78 78 78 78 78 79 80 82
72 74 76 77 78 80 81 82 82 82 82 83 84 85 84 84 84 83 82 82 82 82 82 81 79 77 77 76 76 75 75 76 76 76 77 78 77 77 77 77 78 79
71 73 75 76 78 80 80 81 81 81 82 82 83 84 83 83 83 82 82 82 81 81 81 80 79 77 77 76 76 76 76 76 76 76 77 78 78 77 77 77 77 77
71 73 74 76 78 78 78 79 80 80 81 82 83 83 83 83 83 82 82 82 81 80 80 80 79 77 76 76 76 76 76 76 76 76 78 79 79 78 78 78 78 77
71 73 74 75 76 76 76 77 78 79 81 82 83 83 83 83 83 83 82 81 81 81 80 79 79 77 76 76 75 75 75 75 76 77 78 79 79 79 79 79 79 79

ECMWFNIL_925_rhum_045.txt.gz
RH
81 79 78 79 77 75 75 73 72 71 70 71 73 72 70 67 64 63 64 64 65 65 64 63 65 65 68 68 68 79 87 86 84 77 75 82 83 82 85 84 82 82
82 80 78 80 79 75 74 72 71 70 68 66 69 71 68 65 63 63 63 63 64 65 63 62 64 64 67 68 68 82 95 94 91 87 83 87 88 83 84 84 82 82
83 83 80 81 79 75 76 76 73 70 69 67 67 68 67 66 66 64 62 63 64 66 64 62 63 63 65 67 67 78 93 94 92 92 87 86 89 86 83 84 85 84
83 84 82 81 80 78 80 82 78 74 74 72 68 68 68 68 68 66 65 64 65 67 66 63 64 64 64 65 67 76 89 93 92 93 90 87 89 87 84 84 86 86
83 83 82 81 82 83 83 82 80 79 77 74 71 70 70 69 69 69 68 67 67 67 68 67 65 64 64 64 67 76 88 92 93 93 93 92 90 85 80 80 80 83
85 83 83 83 84 85 84 81 80 80 78 77 74 72 71 70 70 70 69 68 68 69 70 71 68 66 66 64 65 73 84 90 92 91 92 93 92 85 78 74 74 78
86 85 84 84 85 85 83 82 83 81 79 79 77 73 72 72 71 70 69 68 68 70 71 71 69 68 68 67 66 69 76 84 88 91 94 93 93 92 85 75 72 75
84 85 85 85 85 85 84 84 84 82 80 79 78 75 72 72 72 71 70 69 69 70 69 68 68 68 70 72 70 68 73 80 82 85 91 92 92 92 88 80 74 73
82 83 85 85 84 83 83 82 83 83 82 80 79 78 75 72 72 72 70 69 70 70 68 67 66 67 70 72 70 69 71 76 77 75 79 85 86 84 83 81 76 73
82 82 82 83 81 81 81 79 80 83 84 81 79 80 78 74 71 72 72 70 71 71 69 67 66 67 70 70 69 67 67 70 71 69 69 74 76 78 80 80 77 75
81 80 80 80 79 77 78 78 77 80 82 81 80 80 80 77 74 73 73 72 72 71 69 67 67 68 69 70 70 69 67 68 69 66 66 68 70 73 76 75 75 76
78 78 77 78 78 76 76 77 76 77 80 81 80 80 80 80 78 75 74 74 72 71 70 69 68 69 70 70 73 74 71 69 70 68 67 68 70 73 75 74 74 73
76 77 77 77 78 77 76 76 76 76 77 79 80 80 81 81 81 79 75 73 73 72 72 71 71 72 72 71 72 76 74 71 71 72 73 73 74 75 77 80 79 76
75 77 79 79 79 80 79 78 78 77 78 79 81 81 80 80 81 80 78 75 75 75 75 75 75 75 75 73 72 74 76 75 73 74 77 80 78 76 78 81 83 82
76 78 82 82 81 82 82 80 80 80 80 81 82 82 81 80 80 81 81 79 79 80 80 81 82 80 78 76 74 75 77 79 79 78 79 83 83 81 81 83 84 84
79 80 83 83 82 82 81 81 82 83 83 83 84 83 82 83 82 82 82 81 81 83 84 85 85 82 78 75 74 76 79 82 84 82 81 83 85 85 86 86 86 85
79 80 81 81 81 82 81 82 83 85 85 85 85 85 85 86 85 85 83 81 81 83 84 85 85 80 75 73 73 74 78 84 87 85 84 84 86 87 87 87 87 86
78 80 82 82 82 82 82 82 84 86 87 87 86 86 87 87 87 86 85 82 81 82 81 82 82 79 74 72 73 73 75 80 86 88 87 87 87 88 88 87 87 86
79 81 82 83 83 82 82 83 85 87 87 86 85 85 87 88 86 86 87 85 83 82 81 80 80 80 76 73 73 73 74 77 82 87 88 88 88 88 88 88 88 87
79 81 81 83 83 82 83 84 86 87 86 85 84 85 88 88 86 86 88 88 86 85 84 81 79 79 78 75 73 73 75 77 80 85 88 88 88 88 88 88 88 88
78 80 81 83 83 82 84 85 86 87 86 84 82 83 86 87 85 85 87 88 87 86 85 83 80 78 78 76 74 74 76 78 80 83 87 89 89 89 89 89 88 89
77 79 81 82 83 84 85 85 87 87 87 85 83 81 82 85 84 84 85 87 87 86 85 83 80 78 78 76 75 75 77 80 81 83 86 89 90 89 89 89 88 89
76 78 80 81 83 84 85 85 86 87 87 87 85 81 80 82 83 82 83 85 85 86 86 84 82 80 79 77 77 78 79 80 81 82 85 87 87 87 88 87 86 86
75 77 79 80 82 84 83 83 84 85 85 86 85 82 79 79 80 80 81 82 83 84 85 85 83 82 80 78 78 79 80 81 81 82 85 86 85 85 85 84 82 80
75 77 78 79 81 82 81 81 82 82 82 84 83 81 79 78 78 78 80 81 81 81 82 82 82 81 81 79 78 78 80 81 82 83 86 86 86 85 84 84 82 78
74 76 78 79 81 81 79 79 80 79 80 82 82 79 79 79 78 78 79 79 79 80 80 81 81 81 81 80 79 79 80 81 83 85 86 87 86 85 85 85 85 83